TimeCDT,TemperatureF,Dew PointF,Humidity,Sea Level PressureIn,VisibilityMPH,Wind Direction,Wind SpeedMPH,Gust SpeedMPH,PrecipitationIn,Events,Conditions,WindDirDegrees,DateUTC
12:49 AM,51.8,46.4,82,29.90,10.0,West,6.9,-,N/A,,Mostly Cloudy,280,2012-10-15 05:49:00
12:54 AM,52.0,46.9,83,29.90,10.0,West,8.1,-,N/A,,Mostly Cloudy,280,2012-10-15 05:54:00
1:19 AM,51.8,46.4,82,29.91,10.0,WNW,8.1,-,N/A,,Overcast,290,2012-10-15 06:19:00
1:54 AM,50.0,46.9,89,29.91,10.0,WNW,6.9,-,N/A,,Overcast,300,2012-10-15 06:54:00
2:16 AM,50.0,46.4,87,29.92,10.0,WNW,8.1,-,N/A,,Partly Cloudy,300,2012-10-15 07:16:00
2:54 AM,48.9,46.0,90,29.91,10.0,WNW,6.9,-,N/A,,Clear,300,2012-10-15 07:54:00
3:54 AM,48.0,45.0,89,29.91,10.0,West,6.9,-,N/A,,Clear,280,2012-10-15 08:54:00
4:54 AM,48.0,45.0,89,29.91,10.0,West,6.9,-,N/A,,Clear,270,2012-10-15 09:54:00
5:54 AM,46.9,46.0,97,29.93,10.0,West,5.8,-,N/A,,Clear,270,2012-10-15 10:54:00
7:54 AM,48.0,46.0,93,29.96,10.0,West,8.1,-,N/A,,Clear,280,2012-10-15 12:54:00
8:54 AM,51.1,46.0,83,29.98,10.0,West,6.9,-,N/A,,Clear,280,2012-10-15 13:54:00
9:54 AM,54.0,45.0,72,30.00,10.0,WNW,10.4,-,N/A,,Clear,290,2012-10-15 14:54:00
10:54 AM,57.0,43.0,59,30.00,10.0,WNW,10.4,-,N/A,,Clear,300,2012-10-15 15:54:00
11:54 AM,59.0,41.0,51,30.01,10.0,WNW,10.4,-,N/A,,Clear,290,2012-10-15 16:54:00
12:54 PM,61.0,41.0,48,29.99,10.0,NW,10.4,20.7,N/A,,Clear,320,2012-10-15 17:54:00
1:54 PM,62.1,43.0,50,29.98,10.0,NNW,9.2,17.3,N/A,,Clear,330,2012-10-15 18:54:00
2:54 PM,63.0,43.0,48,29.96,10.0,North,9.2,-,N/A,,Clear,360,2012-10-15 19:54:00
3:54 PM,63.0,43.0,48,29.97,10.0,WNW,9.2,-,N/A,,Clear,300,2012-10-15 20:54:00
4:54 PM,62.1,43.0,50,29.97,10.0,NNW,6.9,-,N/A,,Clear,330,2012-10-15 21:54:00
5:54 PM,61.0,42.1,50,29.96,10.0,West,3.5,-,N/A,,Clear,270,2012-10-15 22:54:00
6:54 PM,55.9,43.0,62,29.96,10.0,Calm,Calm,-,N/A,,Clear,0,2012-10-15 23:54:00
7:54 PM,51.1,44.1,77,29.98,10.0,Calm,Calm,-,N/A,,Clear,0,2012-10-16 00:54:00
8:54 PM,50.0,45.0,83,29.98,10.0,Calm,Calm,-,N/A,,Clear,0,2012-10-16 01:54:00
9:54 PM,48.0,45.0,89,29.98,10.0,Calm,Calm,-,N/A,,Clear,0,2012-10-16 02:54:00
10:54 PM,46.0,43.0,89,29.98,10.0,Calm,Calm,-,N/A,,Clear,0,2012-10-16 03:54:00
11:54 PM,44.1,41.0,89,29.98,10.0,Calm,Calm,-,N/A,,Clear,0,2012-10-16 04:54:00